CZ-6A DEB, 61426

Orbit data source: Space-Track

CZ-6A DEB, 61426 is space debris in LEO originally from a launch on Tue, 06 Aug 2024 UTC launched from the Taiyaun Space Center, China (TSC). Debris objects in space refer to the collection of defunct objects orbiting the Earth. Examples of debris include non-operational satellites, rocket bodies, and fragments generated from explosions, collisions, or faulty payload assembly.

Loading next visibility...
Identifier
61426, 2024-140YT
Orbit
LEO
Country
Flag of CNCN / PRC
Related business
Manufacturer
SAST
Mission
Spacecraft
Bus & Motor
Unknown
Mass
Unknown
Launch date (UTC)
2024-08-06 (2 years ago)
Launch vehicle
Unknown
Launch site
Taiyaun Space Center, China (TSC)
Object type
Payload
Rocket body
Debris
Shape & HBR
Unknown shape, 0.1 m
Radar Cross Section
Medium (>0.1 m² and <1 m²)

Expand to show TLE details & history
Last TLE update: 13 hours ago

TLE from 13 hours ago
0 CZ-6A DEB
1 61426U 24140YT  26171.31423429  .00012764  00000-0  13874-2 0  9990
2 61426  89.1194 277.8070 0127290 174.7142 185.5463 14.82180667 98261
Epoch: 2026-06-20T07:32Z
TLE epoch observation values (Epoch: 2026-06-20T07:32:29.842Z)
Latitude
-0.00003°
Longitude
-103.84798°
Altitude
714.316 km
Speed
7.451 km/s
True Right ascension
18h 31m 13s
True Declination
0° 00' 00"
Sunlit
Object was in full shadow at epoch
Visualization orbit readout
Latitude
Unknown
Longitude
Unknown
Altitude
Unknown
Speed
Unknown
Apparent Right ascension
Unknown
Apparent Declination
Unknown
Sunlit
N/A
Visualization observer readout
Local Sidereal Time
07:16:02
Azimuth
Unknown
Elevation
Unknown
Doppler factor
Unknown
Orbital elements
Apogee altitude
708.381 km
Perigee altitude
530.24 km
Semi-major axis
6,997.448 km
Eccentricity
0.01273
Inclination
89.1194°
RAAN
277.807°
Arg. of periapsis
174.7142°
True anomaly
185.40752°
Mean anomaly
185.5463°
Eccentric anomaly
185.47669°
Mean motion
3.70795 °/min
Orbital period
97.09 mins
BSTAR
0.0013874
Loading maneuver chart data...
Computing Atmospheric mass density...
Loading historical data...
Loading historical data...
Loading historical data...
Loading historical data...
Loading historical data...
Loading historical data...
Loading historical data...

Documentation

Showing up to 5 results
|